OBJECT M, 42836

Orbit data source: Space-Track

You're viewing an Uncataloged Satellite

Recently launched and/or uncataloged satellites may have evolving metadata. Metadata may include but not limited to: Owner, Maufacturer, Bus, Motor, and Mission.

OBJECT M, 42836 is a satellite in SSO that was launched on Fri, 14 Jul 2017 UTC via a SOYUZ-2-1A launch vehicle from the Tyuratam Missile And Space Complex (TTMTR). Unknown objects in Earth's orbit typically refer to objects detected orbiting the Earth but have not yet been identified or cataloged. These objects could be anything from previously untracked satellites, spent rocket stages, debris from satellite collisions, or even natural meteoroids temporarily captured by Earth's gravity.

Loading next visibility...
Identifier
42836, 2017-042M
Orbit
SSO
Country
Flag of TBDTBD
Related business
None
Manufacturer
Unknown
Mission
Non-operational Civil Technology
Bus & Motor
Unknown
Mass
Unknown
Launch date (UTC)
2017-07-14 (8 years ago)
Launch vehicle
SOYUZ-2-1A
Launch site
Tyuratam Missile And Space Complex (TTMTR)
Object type
Unknown
Shape & HBR
Box + 2 Pan, 0.2 m
Radar Cross Section
0.092 m², Medium (>0.1 m² and < 1m²)

Expand to show TLE details & history
Last TLE update: 12 hours ago

TLE from 12 hours ago
0 OBJECT M
1 42836U 17042M   25298.02884883  .00007802  00000-0  53813-3 0  9994
2 42836  97.4026 103.4416 0004292 169.6537 190.4780 15.06061926451584
Epoch: 2025-10-25T00:41Z
TLE epoch observation values (Epoch: 2025-10-25T00:41:32.538Z)
Latitude
-0.00002°
Longitude
59.39076°
Altitude
554.243 km
Speed
7.583 km/s
True Right ascension
06h 53m 45s
True Declination
0° 00' 00"
Sunlit
Object was in daylight at epoch
Visualization orbit readout
Latitude
Unknown
Longitude
Unknown
Altitude
Unknown
Speed
Unknown
Apparent Right ascension
Unknown
Apparent Declination
Unknown
Sunlit
N/A
Visualization observer readout
Local Sidereal Time
08:18:23
Azimuth
Unknown
Elevation
Unknown
Doppler factor
Unknown
Orbital elements
Apogee altitude
548.204 km
Perigee altitude
542.261 km
Semi-major axis
6,923.369 km
Eccentricity
0.00043
Inclination
97.4026°
RAAN
103.4416°
Arg. of periapsis
169.6537°
True anomaly
190.46906°
Mean anomaly
190.478°
Eccentric anomaly
190.47353°
Mean motion
3.76762 °/min
Orbital period
95.55 mins
BSTAR
0.00053813
Loading maneuver chart data...
Computing Atmospheric mass density...
Loading historical data...
Loading historical data...
Loading historical data...
Loading historical data...
Loading historical data...
Loading historical data...
Loading historical data...

Documentation

Showing up to 5 results
|